Página principal
METAR-TAF:

METAR-TAF

Aeroportos :

Kashmar, Irão

latitude: 35-16-14N, longitude: 58-28-24E, altura: 1110 m

Observação actual do tempo

O boletim foi feito há 51 minutos, às 22:00 UTC
Vento 10 kt de este
Temperatura 11°C
Humidade 28%
Pressão 1021 hPa

METAR: OIMQ 152200Z AUTO 08010KT //// // ////// 11/M07 Q1021

Hora: 02:21 (22:51 UTC)


TAF: em falta

Observações e previsões do tempo de mais de 4000 aeroportos (mensagens METAR e TAF).

As estações disponíveis são os pontos amarelos e vermelhos sobre o mapa.

Mova o rato sobre o mapa para ver o nome da estação.

Depois clique no ponto para visualizar as observações e previsões meteorológicas.

Para alterar o mapa : clique nos botões verdes com uma cruz preta para aumentar o zoom; no botão verde com uma pitada de zoom; ou nas setas verdes para mapas adjacentes.


METAR-TAF: